{"data":{"norad_id":36828,"epoch":"2026-05-21T00:16:02.141760Z","epoch_age_seconds":429860,"freshness":"STALE","line1":"1 36828U 10036A   26141.01113590 -.00000079  00000+0  00000+0 0  9996","line2":"2 36828  54.2967 163.2045 0058932 224.9850 321.8842  1.00280030 57824","mean_motion":1.0028003,"eccentricity":0.0058932,"inclination_deg":54.2967,"raan_deg":163.2045,"arg_perigee_deg":224.985,"mean_anomaly_deg":321.8842,"bstar":0,"rev_number":5782,"period_min":1435.9788284866,"perigee_km":35535.812168812,"apogee_km":36032.755324702,"semimajor_km":42162.420746757,"source":"CELESTRAK","updated_at":"2026-05-25T13:38:24.182453Z"}}